{"data":{"norad_id":55343,"intl_designator":"2023-013N","name":"STARLINK-5661","alt_names":[],"object_type":"PAYLOAD","status":"ACTIVE","operator":null,"country":"US","launch_date":"2023-01-26","launch_site_code":"AFETR","launch_vehicle":null,"mission":null,"orbit_class":"UNKNOWN","rcs_meters":null,"size_class":null,"mass_kg":null,"dimensions":null,"purposes":["comms"],"wikipedia_slug":null,"has_3d_model":false,"image_url":null,"decayed_at":null,"tle_current":{"epoch":"2026-05-24T23:14:55.415616Z","epoch_age_seconds":88242,"freshness":"FRESH","line1":"1 55343U 23013N   26144.96869694 -.00003728  00000+0 -12593-3 0  9997","line2":"2 55343  43.0049 232.2581 0002837 263.3779  96.6750 15.27594830183348","mean_motion":15.2759483,"eccentricity":0.0002837,"inclination_deg":43.0049,"raan_deg":232.2581,"arg_perigee_deg":263.3779,"mean_anomaly_deg":96.675,"bstar":-0.00012593,"rev_number":18334,"period_min":94.265833565305,"perigee_km":481.05818414637,"apogee_km":484.9511959413,"semimajor_km":6861.1416900438,"source":"CELESTRAK","updated_at":"2026-05-25T13:38:17.762198Z"}}}